Location: Diguira
(13.1838°N, 4.9109°W)
Time: 15:00:34
(UTC+00:00)

MOS 1 Rocket - Pass Details

Date: 18 September 2020
Orbit: 613 x 831 km, 97.4° (Epoch: 19 October)

Event Time Altitude Azimuth Distance (km) Brightness Sun altitude
Rises 19:06:52 0° 13° (NNE) 2,899 6.4 -12.6°
Reaches altitude 10° 19:09:04 10° 15° (NNE) 1,979 5.5 -13.2°
Maximum altitude 19:13:20 77° 101° (ESE) 631 2.9 -14.2°
Drops below altitude 10° 19:17:35 10° 187° (S) 1,970 5.7 -15.2°
Sets 19:19:46 0° 189° (S) 2,884 6.5 -15.8°
